Location: ??? ????????
(30.5854°N, 60.4574°E)
Time: 15:52:56
(UTC+00:00)

Daily predictions for brighter satellites

Satellite Brightness Start Highest point End
(mag) Time Altitude Azimuth Time Altitude Azimuth Time Altitude Azimuth
Nadezhda 4 Rocket 4.1 13:11:50 10° S 13:18:00 59° E 13:24:12 10° NNE
OAO 3 Rocket 3.2 13:14:45 10° WSW 13:19:26 76° NNW 13:24:12 10° ENE
RESURS DK-1 4.1 13:16:42 10° SW 13:20:24 32° WNW 13:24:07 10° N
Feng Yun 1-1 Rocket 4.2 13:15:41 10° SSE 13:20:59 58° ENE 13:26:15 10° N
AQUARIUS 4.3 13:17:48 10° SSE 13:22:08 50° ENE 13:26:29 10° N
Cosmos 1844 Rocket 3.8 13:21:13 10° NNW 13:26:37 51° WSW 13:31:59 10° S
Cosmos 1980 3.8 13:21:37 10° SSW 13:27:15 90° N 13:32:55 10° NNE
FALCON 9 DEB 3.2 13:25:10 10° SW 13:28:39 83° NW 13:32:09 10° NE
Cosmos 1302 Rocket 4.0 13:26:49 10° NNW 13:32:06 88° ENE 13:37:19 10° SSE
Cosmos 2251 Rocket 4.0 13:27:39 10° SSW 13:32:57 67° WNW 13:38:13 10° N
CENTAUR R/B 3.7 13:25:42 10° NW 13:34:06 71° WSW 13:42:44 10° SSE
CZ-3B R/B 4.4 13:36:06 10° SE 13:36:40 10° SE 13:37:15 10° SE
IRS-1C Rocket 4.2 13:31:25 10° SSE 13:36:42 87° WSW 13:41:59 10° NNW
OAO 2 Rocket 3.6 13:33:57 10° W 13:38:53 60° N 13:43:23 13° ENE
Cosmos 2026 Rocket 4.5 13:35:14 10° SSE 13:40:42 36° E 13:46:09 10° NNE
Cosmos 1908 Rocket 4.4 13:39:31 10° NNE 13:43:20 29° E 13:47:06 10° SE
YAOGAN 6 3.5 13:42:42 10° SE 13:45:37 25° ENE 13:48:35 10° NNE
COSMO-SKYMED 1 2.7 13:41:34 10° NNE 13:45:49 54° E 13:50:04 10° S
Cosmos 1500 3.0 13:42:10 10° N 13:45:56 82° E 13:49:38 10° S
YAOGAN 1 3.9 13:43:42 10° ESE 13:46:40 18° ENE 13:49:37 10° NNE
H-2A R/B 3.0 13:43:23 10° S 13:47:05 70° W 13:50:46 10° NNW
Aureole 1 Rocket 2.0 13:45:00 10° S 13:48:04 67° ESE 13:51:00 10° NNE
STARLINK-52 3.4 13:44:43 10° SW 13:48:11 66° NW 13:51:11 13° NE
SL-8 R/B 3.6 13:46:15 10° NW 13:51:05 74° NE 13:55:53 10° SE
ERBS 2.1 13:48:04 10° NW 13:51:25 79° NE 13:54:46 10° SE
Envisat 3.0 13:47:47 10° SSE 13:52:46 60° ENE 13:57:45 10° N
Cosmos 1536 2.8 13:49:29 10° N 13:53:26 58° E 13:57:20 10° SSE
Cosmos 614 Rocket 4.4 13:48:51 10° S 13:53:35 40° ESE 13:57:58 12° NE
Meteor 1-5 Rocket 4.5 13:48:45 10° NNW 13:54:12 70° W 13:59:29 10° S
CZ-4 R/B 2.2 13:50:58 10° SE 13:54:19 27° ENE 13:57:36 10° NNE
STARLINK-29 4.1 13:53:00 10° WSW 13:56:24 45° NW 13:59:11 14° NNE
Cosmos 1441 Rocket 4.4 13:59:34 21° E 13:59:34 21° E 14:02:02 10° SE
Abrixas rocket 4.4 13:58:46 10° SE 13:59:29 11° SE 13:59:29 11° SE
Okean 1-7 3.1 13:56:11 10° S 14:00:21 52° E 14:04:34 10° NNE
Lacrosse 5 rocket 4.1 13:59:50 10° WNW 14:01:05 11° NW 14:02:18 10° NNW
FengYun 1-2 T 4.3 13:56:04 10° SSE 14:01:21 51° ENE 14:06:38 10° N
USA 267 3.2 13:55:44 10° SE 14:02:17 83° NE 14:08:50 10° NW
Cosmos 407 Rocket 3.7 13:57:55 10° S 14:02:50 48° ESE 14:07:05 14° NNE
Cosmos 1627 Rocket 4.4 13:59:16 10° S 14:05:18 67° E 14:11:22 10° NNE
Cosmos 1140 Rocket 4.1 14:01:21 10° SSE 14:05:52 32° E 14:08:13 22° NE
Delta 2 Rocket 4.1 14:01:30 10° SW 14:06:13 48° SSE 14:08:30 24° E
Okean 1 3.7 14:04:59 10° SSE 14:08:45 40° E 14:10:44 23° NE
Cosmos 1733 Rocket 4.4 14:05:01 10° NNW 14:09:08 42° W 14:13:17 10° SSW
ATLAS 3B R/B 4.0 14:07:58 10° NW 14:14:19 43° WSW 14:20:51 10° S
Cosmos 1992 Rocket 3.9 14:11:31 10° NNW 14:16:46 83° ENE 14:21:59 10° SSE
Cosmos 2195 Rocket 4.5 14:10:50 10° S 14:17:01 86° W 14:23:18 10° N
Cosmos 2221 Rocket 4.1 14:16:56 10° SSE 14:21:01 35° E 14:21:17 35° E
Cosmos 2278 Rocket 2.2 14:16:52 10° NNW 14:22:32 83° WSW 14:28:10 10° SSE
Cosmos 1900 4.5 14:19:45 10° NNW 14:24:26 46° ENE 14:26:38 27° ESE
CZ-4 R/B 4.3 14:21:52 10° SSE 14:26:00 84° E 14:30:11 10° N
Meteor 1-19 Rocket 4.4 14:21:43 10° SSE 14:27:02 47° E 14:29:31 28° NE
ISS -1.3 14:24:38 10° NNW 14:25:11 13° N 14:25:11 13° N
Lacrosse 5 3.7 14:24:15 10° SSE 14:26:20 16° SE 14:26:20 16° SE
SL-16 R/B 2.2 14:22:49 10° SSW 14:28:28 81° WNW 14:33:10 16° NNE
Cosmos 1666 2.9 14:26:51 10° NNW 14:30:33 67° W 14:34:14 10° S
CZ-4C R/B 3.9 14:28:47 10° SE 14:29:16 12° SE 14:29:16 12° SE
Cosmos 1782 Rocket 3.3 14:33:23 10° N 14:37:43 71° E 14:42:01 10° SSE
Meteor 2-4 Rocket 4.3 14:34:15 10° SSE 14:39:19 39° E 14:39:19 39° E
Cosmos 2237 Rocket 4.4 14:36:46 10° WSW 14:40:59 21° WNW 14:45:13 10° NNW
Atlas Centaur 2 3.6 14:36:45 10° W 14:44:33 55° SSW 14:50:42 19° SE
Centaur D-1AR AC-41 4.5 14:46:07 10° WSW 14:49:17 26° S 14:51:04 21° SE
STARLINK-43 3.7 14:46:48 10° SW 14:49:57 61° WSW 14:49:57 61° WSW
Cosmos 1190 Rocket 4.5 14:48:53 10° SSW 14:54:00 57° WNW 14:56:54 25° N
Sakura Rocket 4.3 14:48:27 10° WSW 14:54:45 72° S 14:57:21 46° E
Cosmos 676 Rocket 3.8 14:50:15 10° S 14:55:25 81° ESE 14:55:53 72° NE
SWIFT 4.3 14:52:36 10° SW 14:55:31 19° S 14:55:31 19° S
Cosmos 292 Rocket 3.9 14:51:19 10° NNW 14:56:10 73° WSW 15:00:57 10° S
OAO 1 Rocket 4.5 14:54:47 10° WNW 15:00:04 70° SSW 15:00:42 63° SSE
OAO 3 Rocket 3.8 14:58:38 10° WNW 15:02:33 45° NNW 15:02:33 45° NNW
Cosmos 1954 Rocket 3.9 15:00:51 10° SSW 15:05:59 85° WNW 15:05:59 85° WNW
Cosmos 2266 Rocket 4.1 15:02:17 10° S 15:07:39 57° SE 15:07:39 57° SE
GEOS 3 Rocket 4.4 15:13:18 40° S 15:13:18 40° S 15:16:51 10° SSW
Meteor 2-13 Rocket 4.5 15:09:38 10° SSW 15:15:39 73° W 15:17:43 43° N
Cosmos 1553 Rocket 4.0 15:11:14 10° N 15:17:37 79° W 15:24:00 10° S
CZ-4 R/B 4.3 15:27:00 10° SW 15:29:17 15° W 15:31:33 10° WNW
CZ-3B R/B 3.5 15:24:46 10° SW 15:31:22 40° SSE 15:31:22 40° SSE
ADEOS Rocket 4.4 15:53:31 28° SW 15:53:31 28° SW 15:56:09 10° SSW
SL-16 R/B 4.5 23:28:34 18° ENE 23:28:34 18° ENE 23:32:07 10° ESE
Cosmos 2237 Rocket 4.4 23:44:53 17° SSE 23:44:53 17° SSE 23:46:07 10° SSE
